Location: Trois-Rivi�res
(46.3500°N, 72.5500°W)
Time: 01:35:37
(UTC-04:00)

Cosmos 1544 - Visible Passes

Search period start: 26 May 2015 00:00
Search period end: 05 June 2015 00:00
Orbit: 489 x 512 km, 82.5° (Epoch: 25 May)

Date Brightness Start Highest point End Pass type
(mag) Time Alt. Az. Time Alt. Az. Time Alt. Az.
26 May 5.4 01:17:48 10° NW 01:19:44 15° W 01:19:44 15° W visible
26 May 4.4 23:21:56 10° NNE 23:25:09 28° ENE 23:25:30 27° E visible
27 May 5.0 00:57:37 10° NW 01:00:12 20° W 01:00:12 20° W visible
27 May 4.8 23:02:29 10° NNE 23:05:19 21° ENE 23:05:58 20° E visible
28 May 4.5 00:37:36 10° NNW 00:40:40 27° W 00:40:40 27° W visible
28 May 5.1 22:43:10 10° NNE 22:45:28 16° ENE 22:46:27 15° E visible
29 May 4.0 00:17:40 10° NNW 00:21:08 38° W 00:21:09 38° W visible
29 May 5.5 22:24:09 10° NE 22:25:35 12° ENE 22:26:56 11° E visible
29 May 3.4 23:57:49 10° NNW 00:01:26 53° W 00:01:38 52° WSW visible
30 May 3.0 23:38:01 10° NNW 23:41:43 76° W 23:42:07 66° SSW visible
31 May 3.0 23:18:16 10° N 23:21:59 77° E 23:22:37 58° SSE visible
01 Jun 3.4 22:58:35 10° N 23:02:13 54° ENE 23:03:07 41° SE visible
02 Jun 5.7 00:36:02 10° WNW 00:37:12 11° W 00:37:49 11° W visible
02 Jun 3.9 22:38:56 10° N 22:42:25 38° ENE 22:43:38 29° ESE visible
03 Jun 5.4 00:15:20 10° NW 00:17:33 15° W 00:18:20 14° WSW visible
03 Jun 4.3 22:19:22 10° NNE 22:22:35 28° ENE 22:24:09 21° ESE visible
03 Jun 5.0 23:55:05 10° NW 23:57:53 20° W 23:58:51 18° WSW visible
04 Jun 4.8 21:59:52 10° NNE 22:02:43 21° ENE 22:04:41 15° ESE visible
04 Jun 4.7 23:35:01 10° NNW 23:38:11 27° W 23:39:23 22° WSW visible
